{"data":{"norad_id":46916,"epoch":"2026-09-19T19:37:38.827200Z","epoch_age_seconds":84721,"freshness":"FRESH","line1":"1 46916U 20082A   26262.81781050 -.00000360  00000+0  00000+0 0  9994","line2":"2 46916   0.7055 343.0612 0000761 236.5373 198.4652  1.00269668 21609","mean_motion":1.00269668,"eccentricity":7.61e-5,"inclination_deg":0.7055,"raan_deg":343.0612,"arg_perigee_deg":236.5373,"mean_anomaly_deg":198.4652,"bstar":0,"rev_number":2160,"period_min":1436.1272244364,"perigee_km":35783.979662315,"apogee_km":35790.397224848,"semimajor_km":42165.325443582,"source":"CELESTRAK","updated_at":"2026-09-20T09:00:35.295903Z"}}